Regional Weather Roundup
Issued by NWS

Home | Current Version | Previous Version | Graphics & Text | Print | Product List | Glossary On
Versions: 1 2 3 4 5 6 7 8 9 10 11 12 13 14 15 16 17 18 19 20 21 22 23 24 25 26 27 28 29 30 31 32 33 34 35 36 37 38 39 40 41 42 43 44 45 46 47 48 49 50
000
ASUS43 KOAX 242110
RWRNE

WEATHER ROUNDUP FOR NEBRASKA
NATIONAL WEATHER SERVICE OMAHA NE
400 PM CDT SAT SEP 24 2016

NOTES: SATELLITE DATA IS BEING USED TO AUGMENT CLOUD COVER ABOVE
       12000 FEET.
       "FAIR" INDICATES FEW OR NO CLOUDS BELOW 12,000 FEET WITH NO
       SIGNIFICANT WEATHER AND/OR OBSTRUCTIONS TO VISIBILITY.

  * THESE STATIONS DO NOT REPORT WEATHER SUCH AS RAIN...SNOW OR FOG.

NEZ001>004-019>022-054>056-242200-
NEBRASKA PANHANDLE

CITY           SKY/WX    TMP DP  RH WIND       PRES   REMARKS
SCOTTSBLUFF    PTSUNNY   71  37  28 W17G24    29.96S
ALLIANCE       MOSUNNY   68  36  30 W22       29.94F
CHADRON        MOSUNNY   64  42  44 W25G40    29.93R
KIMBALL        MOSUNNY   65  34  31 W10       30.00S
SIDNEY         MOSUNNY   70  31  23 SW12      29.98F
$$

NEZ057>060-069>072-079>082-242200-
SOUTHWEST NEBRASKA

CITY           SKY/WX    TMP DP  RH WIND       PRES   REMARKS
NORTH PLATTE   SUNNY     80  38  22 SW8       29.90F
IMPERIAL       MOSUNNY   72  36  26 VRB5      29.94F HAZE
LEXINGTON      SUNNY     76  43  30 CALM      29.90S
MCCOOK         SUNNY     78  39  24 VRB3      29.91F
OGALLALA       SUNNY     75  34  22 CALM      29.93F
$$

NEZ005>010-023>029-035>040-094-242200-
NORTH CENTRAL NEBRASKA

CITY           SKY/WX    TMP DP  RH WIND       PRES   REMARKS
VALENTINE      SUNNY     76  34  21 SW16G25   29.86F
AINSWORTH      SUNNY     75  40  28 W12       29.87F
BROKEN BOW     SUNNY     78  42  27 NW7       29.87F
O`NEILL        MOSUNNY   77  47  35 W7        29.87S
ORD            SUNNY     77  49  37 W9        29.85F
THEDFORD       SUNNY     76  36  23 W17       29.90F
$$

NEZ041-046>049-061>064-073>077-083>087-242200-
SOUTH CENTRAL NEBRASKA

CITY           SKY/WX    TMP DP  RH WIND       PRES   REMARKS
GRAND ISLAND   CLOUDY    72  64  76 SW9       29.90R
AURORA         CLOUDY    74  69  86 SW8       29.89R
HASTINGS       CLOUDY    71  65  81 SW8       29.91R
HEBRON         CLOUDY    72  68  89 SE5       29.90R
HOLDREGE       SUNNY     77  40  26 W5        29.90R
KEARNEY *      SUNNY     77  48  36 S7        29.88S
YORK           CLOUDY    73  68  83 S14       29.89R
$$

NEZ011>018-030>034-042>045-242200-
NORTHEAST NEBRASKA

CITY           SKY/WX    TMP DP  RH WIND       PRES   REMARKS
NORFOLK        CLOUDY    73  67  81 S6        29.89S
ALBION         CLOUDY    73  64  75 S10       29.89S
BLAIR          CLOUDY    74  70  89 S7        29.91F
FREMONT        LGT RAIN  73  72  95 E9        29.88F
TEKAMAH        RAIN      75  71  87 S8        29.90F
WAYNE          CLOUDY    71  69  92 S8        29.89R
$$

NEZ050>053-065>068-078-088>093-242200-
SOUTHEAST NEBRASKA

CITY           SKY/WX    TMP DP  RH WIND       PRES   REMARKS
LINCOLN        CLOUDY    74  71  91 SE12      29.89F
OMAHA EPPLEY   TSTM      75  71  87 SE6       29.91F FOG
BEATRICE       LGT RAIN  73  71  95 SE7       29.89F
FALLS CITY     TSTM      72  70  93 W13       29.92F FOG
NEBRASKA CITY  TSTM      71  67  89 SW10      29.96R
PLATTSMOUTH    CLOUDY    72  69  89 S3        29.93S
$$

NEZ044-045-051>053-067-242200-
OMAHA AREA

CITY           SKY/WX    TMP DP  RH WIND       PRES   REMARKS
OMAHA EPPLEY   TSTM      75  71  87 SE6       29.91F FOG
BLAIR          CLOUDY    74  70  89 S7        29.91F
FREMONT        LGT RAIN  73  72  95 E9        29.88F
MILLARD        TSTM      74  71  89 S3        29.90F
OFFUTT AFB     TSTM      71  71 100 SE7       29.91F
PLATTSMOUTH    CLOUDY    72  69  89 S3        29.93S
WAHOO          LGT RAIN  73  71  94 SE9       29.87F
$$



USA.gov is the U.S. government's official web portal to all federal, state and local government web resources and services.